Location: Newark
(30.0333°N, 31.2167°E)
Time: 01:01:11
(UTC+00:00)

Tiros 1 - Pass Details

Date: 28 January 2020
Orbit: 631 x 664 km, 48.4° (Epoch: 20 February)

Event Time Altitude Azimuth Distance (km) Brightness Sun altitude
Rises 07:10:23 0° 194° (SSW) 2,901 10.9 25.5°
Reaches altitude 10° 07:13:09 10° 178° (S) 1,999 10.5 25.9°
Maximum altitude 07:16:35 21° 129° (SE) 1,424 11.7 26.4°
Drops below altitude 10° 07:20:03 10° 81° (E) 2,018 10.3 27.0°
Sets 07:22:51 0° 65° (ENE) 2,935 10.8 27.4°
